DB0OFT-6 Weather Reports


Display with metric or nautical units.
time (UTC)temp
F
wind
direction
speed
MPH
gust
MPH
rain 1hr
in
rain 24hr
in
rain mn
in
humidity
%
barometer
mb
20210726180310 70 157 0.0 0.0 0.00 0.00 0.00 70 965.8
20210726175901 70 157 0.0 0.0 0.00 0.00 0.00 70 965.8
20210726172902 70 157 0.0 0.0 0.00 0.00 0.00 71 965.7
20210726171901 70 180 0.0 0.0 0.00 0.00 0.00 70 965.5
20210726170901 70 135 0.0 0.0 0.00 0.00 0.00 69 965.4
20210726170841 70 135 0.0 0.0 0.00 0.00 0.00 67 964.6
20210726163901 70 180 0.0 0.0 0.00 0.00 0.00 68 964.8
20210726162902 70 135 0.0 0.0 0.00 0.00 0.00 67 964.6
20210726161901 70 45 0.0 0.0 0.00 0.00 0.00 66 964.7
20210726160902 71 315 0.0 0.0 0.00 0.00 0.00 66 965.2
20210726154317 72 0 0.0 0.0 0.00 0.00 0.00 66 965.5
20210726153902 72 0 0.0 0.0 0.00 0.00 0.00 66 965.5
20210726153030 71 337 0.0 0.0 0.00 0.00 0.00 72 965.8
20210726152903 72 0 0.0 0.0 0.00 0.00 0.00 69 965.5
20210726151901 71 337 0.0 0.0 0.00 0.00 0.00 72 965.8
20210726151218 70 337 0.0 0.0 0.00 0.00 0.00 74 965.7
20210726150902 70 337 0.0 0.0 0.00 0.00 0.00 74 965.7
20210726145903 70 292 0.0 0.0 0.00 0.00 0.00 74 965.3
20210726144902 70 22 0.0 0.0 0.00 0.00 0.00 73 965.0
20210726143354 70 135 0.0 0.0 0.00 0.00 0.00 75 965.5
20210726143313 70 135 0.0 0.0 0.00 0.00 0.00 75 965.5
20210726142902 70 135 0.0 0.0 0.00 0.00 0.00 75 965.5
20210726142307 69 180 1.0 0.0 0.00 0.00 0.00 75 965.4
20210726141902 69 180 1.0 0.0 0.00 0.00 0.00 75 965.4
20210726140902 69 157 0.0 0.0 0.00 0.00 0.00 75 965.3
20210726134903 70 135 0.0 0.0 0.00 0.00 0.00 73 964.8
20210726134303 70 202 1.0 0.0 0.00 0.00 0.00 73 965.2
20210726133902 70 202 1.0 0.0 0.00 0.00 0.00 73 965.2
20210726125902 73 157 1.0 0.0 0.00 0.00 0.00 67 965.0
20210726124903 74 180 0.0 0.0 0.00 0.00 0.00 66 964.9
20210726123903 75 135 0.0 0.0 0.00 0.00 0.00 63 964.5
20210726123142 76 157 0.0 0.0 0.00 0.00 0.00 59 964.7
20210726123059 76 157 0.0 0.0 0.00 0.00 0.00 59 964.7
20210726122936 76 157 0.0 0.0 0.00 0.00 0.00 59 964.7
20210726122901 76 157 0.0 0.0 0.00 0.00 0.00 59 964.7
20210726122500 76 112 0.0 0.0 0.00 0.00 0.00 55 964.5
20210726121902 76 112 0.0 0.0 0.00 0.00 0.00 55 964.5
20210726120902 77 337 0.0 0.0 0.00 0.00 0.00 52 964.4
20210726114902 79 135 0.0 0.0 0.00 0.00 0.00 51 964.6
20210726113902 79 315 0.0 0.0 0.00 0.00 0.00 51 964.2
20210726113304 80 135 0.0 0.0 0.00 0.00 0.00 49 964.3
20210726112902 80 135 0.0 0.0 0.00 0.00 0.00 49 964.3
20210726111309 83 135 0.0 0.0 0.00 0.00 0.00 47 964.6
20210726110902 82 22 0.0 0.0 0.00 0.00 0.00 47 964.5
20210726105901 83 135 0.0 0.0 0.00 0.00 0.00 47 964.6
20210726105309 82 157 0.0 0.0 0.00 0.00 0.00 48 964.8
20210726104901 83 337 0.0 0.0 0.00 0.00 0.00 47 964.6
20210726103901 82 157 0.0 0.0 0.00 0.00 0.00 48 964.8
20210726102907 82 337 1.0 0.0 0.00 0.00 0.00 48 964.9
20210726101902 81 135 0.0 0.0 0.00 0.00 0.00 49 964.8
20210726101439 82 0 0.0 0.0 0.00 0.00 0.00 48 965.0
20210726101351 82 0 0.0 0.0 0.00 0.00 0.00 48 965.0
20210726101310 82 0 0.0 0.0 0.00 0.00 0.00 48 965.0
20210726100901 82 0 0.0 0.0 0.00 0.00 0.00 48 965.0
20210726100308 81 202 0.0 0.0 0.00 0.00 0.00 49 965.2
20210726095902 82 157 1.0 0.0 0.00 0.00 0.00 48 964.9
20210726093901 81 202 0.0 0.0 0.00 0.00 0.00 49 965.2
20210726093303 80 135 0.0 0.0 0.00 0.00 0.00 49 965.1
20210726092901 80 135 0.0 0.0 0.00 0.00 0.00 49 965.1
20210726091908 85 135 0.0 0.0 0.00 0.00 0.00 46 965.3
20210726091901 80 337 0.0 0.0 0.00 0.00 0.00 49 965.2
20210726085902 85 135 0.0 0.0 0.00 0.00 0.00 46 965.3
20210726083901 87 337 0.0 0.0 0.00 0.00 0.00 44 965.3
20210726083236 86 45 0.0 0.0 0.00 0.00 0.00 47 965.4
20210726082902 93 157 0.0 0.0 0.00 0.00 0.00 43 965.4
20210726080949 86 45 0.0 0.0 0.00 0.00 0.00 47 965.4
20210726080901 86 45 0.0 0.0 0.00 0.00 0.00 47 965.4
20210726074951 82 135 0.0 0.0 0.00 0.00 0.00 54 965.3
20210726074902 82 135 0.0 0.0 0.00 0.00 0.00 54 965.3
20210726074059 80 45 0.0 0.0 0.00 0.00 0.00 56 965.3
20210726073901 80 45 0.0 0.0 0.00 0.00 0.00 56 965.3
20210726072902 77 0 0.0 0.0 0.00 0.00 0.00 61 965.0
20210726065901 69 337 0.0 0.0 0.00 0.00 0.00 70 965.1
20210726061120 65 180 0.0 0.0 0.00 0.00 0.00 75 964.8
20210726060901 65 180 0.0 0.0 0.00 0.00 0.00 75 964.8
20210726060444 64 135 0.0 0.0 0.00 0.00 0.00 76 964.6
20210726055901 64 135 0.0 0.0 0.00 0.00 0.00 76 964.6
20210726054312 62 157 0.0 0.0 0.00 0.00 0.00 81 964.6
20210726053901 62 157 0.0 0.0 0.00 0.00 0.00 81 964.6
20210726051009 59 135 0.0 0.0 0.00 0.00 0.00 83 964.4
20210726050901 59 135 0.0 0.0 0.00 0.00 0.00 83 964.4
20210726044359 58 180 0.0 0.0 0.00 0.00 0.00 83 964.1
20210726041901 58 180 0.0 0.0 0.00 0.00 0.00 83 964.1
20210726030901 58 157 0.0 0.0 0.00 0.00 0.00 83 964.7
20210726024901 58 180 0.0 0.0 0.00 0.00 0.00 83 964.6
20210726024204 58 157 0.0 0.0 0.00 0.00 0.00 83 964.4
20210726024200 58 135 0.0 0.0 0.00 0.00 0.00 83 964.5
20210726023902 58 157 0.0 0.0 0.00 0.00 0.00 83 964.4
20210726022901 58 135 0.0 0.0 0.00 0.00 0.00 83 964.5
20210726021944 58 135 0.0 0.0 0.00 0.00 0.00 83 964.4
20210726021901 58 135 0.0 0.0 0.00 0.00 0.00 83 964.4
20210726021309 59 180 0.0 0.0 0.00 0.00 0.00 83 964.2
20210726021304 58 202 0.0 0.0 0.00 0.00 0.00 83 964.3
20210726020903 58 180 0.0 0.0 0.00 0.00 0.00 83 964.2
20210726014901 58 180 0.0 0.0 0.00 0.00 0.00 83 964.3
20210726013903 59 180 0.0 0.0 0.00 0.00 0.00 83 964.2
20210726012902 58 202 0.0 0.0 0.00 0.00 0.00 83 964.3
20210726012309 58 157 0.0 0.0 0.00 0.00 0.00 83 964.4
20210726012305 58 135 0.0 0.0 0.00 0.00 0.00 83 964.4
20210726011901 58 157 0.0 0.0 0.00 0.00 0.00 83 964.4
20210726010901 58 135 0.0 0.0 0.00 0.00 0.00 83 964.4
20210726010842 58 157 0.0 0.0 0.00 0.00 0.00 83 964.4
20210726005901 58 135 0.0 0.0 0.00 0.00 0.00 83 964.4
20210726004901 58 157 0.0 0.0 0.00 0.00 0.00 83 964.4
20210726003846 58 180 1.0 0.0 0.00 0.00 0.00 82 964.1
20210726002902 58 180 1.0 0.0 0.00 0.00 0.00 82 964.1
20210726000845 58 180 0.0 0.0 0.00 0.00 0.00 82 964.1
20210726000840 58 157 0.0 0.0 0.00 0.00 0.00 82 964.2
20210726000834 59 157 0.0 0.0 0.00 0.00 0.00 82 964.1
20210725235903 58 180 0.0 0.0 0.00 0.00 0.00 82 964.1
20210725234902 58 157 0.0 0.0 0.00 0.00 0.00 82 964.2
20210725233925 59 180 0.0 0.0 0.00 0.00 0.00 82 964.1
20210725233902 59 157 0.0 0.0 0.00 0.00 0.00 82 964.1
20210725233843 59 180 0.0 0.0 0.00 0.00 0.00 82 964.1
20210725233834 59 157 0.0 0.0 0.00 0.00 0.00 82 964.3
20210725231902 59 180 0.0 0.0 0.00 0.00 0.00 82 964.1
20210725230903 59 157 0.0 0.0 0.00 0.00 0.00 82 964.3
20210725230302 59 180 0.0 0.0 0.00 0.00 0.00 81 964.3
20210725225902 59 180 0.0 0.0 0.00 0.00 0.00 82 964.2
20210725224902 59 180 0.0 0.0 0.00 0.00 0.00 81 964.3
20210725223902 59 180 0.0 0.0 0.00 0.00 0.00 81 964.3
20210725223836 60 157 0.0 0.0 0.00 0.00 0.00 81 964.2
20210725222902 60 157 0.0 0.0 0.00 0.00 0.00 81 964.2
20210725215310 60 180 0.0 0.0 0.00 0.00 0.00 80 964.1
20210725214902 60 180 0.0 0.0 0.00 0.00 0.00 80 964.1
20210725213902 61 157 0.0 0.0 0.00 0.00 0.00 80 964.1
20210725213311 61 157 0.0 0.0 0.00 0.00 0.00 79 964.2
20210725212902 61 180 0.0 0.0 0.00 0.00 0.00 79 964.3
20210725211901 61 157 0.0 0.0 0.00 0.00 0.00 79 964.2
20210725210844 62 202 0.0 0.0 0.00 0.00 0.00 79 964.3
20210725210838 62 157 0.0 0.0 0.00 0.00 0.00 78 964.3
20210725205903 62 202 0.0 0.0 0.00 0.00 0.00 79 964.3
20210725204902 62 157 0.0 0.0 0.00 0.00 0.00 78 964.3
20210725203902 62 180 0.0 0.0 0.00 0.00 0.00 77 964.1
20210725201308 64 135 0.0 0.0 0.00 0.00 0.00 75 963.5
20210725194903 64 135 0.0 0.0 0.00 0.00 0.00 75 963.5
20210725185903 67 112 0.0 0.0 0.00 0.00 0.00 71 962.8
20210725183121 69 157 0.0 0.0 0.00 0.00 0.00 68 963.0
20210725183113 70 157 0.0 0.0 0.00 0.00 0.00 68 962.9
20210725182901 69 157 0.0 0.0 0.00 0.00 0.00 68 963.0
20210725181902 70 157 0.0 0.0 0.00 0.00 0.00 68 962.9